EW1071 Weather Reports


Display with metric or nautical units.
time (UTC)temp
F
wind
direction
speed
MPH
gust
MPH
rain 1hr
in
rain 24hr
in
rain mn
in
humidity
%
barometer
mb
20260902170032 60 113 8.0 16.0 0.00 0.00 0.00 71 1015.0
20260902164533 61 78 3.0 13.0 0.00 0.00 0.00 71 1014.8
20260902163032 61 109 7.0 15.0 0.00 0.00 0.00 72 1014.6
20260902161538 61 113 1.0 16.0 0.00 0.00 0.00 71 1014.5
20260902160030 62 109 6.0 16.0 0.00 0.00 0.00 71 1014.6
20260902154529 63 103 4.0 12.0 0.00 0.00 0.00 69 1014.4
20260902153029 63 101 7.0 12.0 0.00 0.00 0.00 67 1014.4
20260902151530 65 98 0.0 10.0 0.00 0.00 0.00 65 1014.3
20260902150128 66 113 4.0 11.0 0.00 0.00 0.00 62 1014.3
20260902144527 67 118 2.0 6.0 0.00 0.00 0.00 60 1014.3
20260902143026 68 115 2.0 10.0 0.00 0.00 0.00 58 1014.4
20260902141534 68 92 0.0 7.0 0.00 0.00 0.00 55 1014.4
20260902140026 69 99 0.0 10.0 0.00 0.00 0.00 55 1014.3
20260902134535 69 99 0.0 5.0 0.00 0.00 0.00 53 1014.2
20260902133025 69 172 0.0 4.0 0.00 0.00 0.00 53 1014.2
20260902131528 70 120 0.0 6.0 0.00 0.00 0.00 52 1014.2
20260902130022 70 165 0.0 5.0 0.00 0.00 0.00 53 1014.4
20260902124526 70 118 1.0 10.0 0.00 0.00 0.00 51 1014.6
20260902123024 70 196 0.0 8.0 0.00 0.00 0.00 53 1014.7
20260902121519 70 116 0.0 6.0 0.00 0.00 0.00 53 1014.8
20260902120017 70 185 1.0 11.0 0.00 0.00 0.00 54 1015.0
20260902114517 70 112 0.0 7.0 0.00 0.00 0.00 55 1015.3
20260902113015 69 111 0.0 12.0 0.00 0.00 0.00 57 1015.2
20260902111514 69 161 0.0 12.0 0.00 0.00 0.00 57 1015.4
20260902110026 68 168 1.0 15.0 0.00 0.00 0.00 57 1015.6
20260902104532 68 117 1.0 10.0 0.00 0.00 0.00 55 1015.8
20260902103013 69 163 0.0 10.0 0.00 0.00 0.00 56 1016.1
20260902101511 69 146 0.0 9.0 0.00 0.00 0.00 53 1016.3
20260902100011 70 188 0.0 9.0 0.00 0.00 0.00 53 1016.4
20260902094512 69 215 0.0 7.0 0.00 0.00 0.00 56 1016.9
20260902093009 69 180 2.0 10.0 0.00 0.00 0.00 57 1017.1
20260902091511 69 187 1.0 9.0 0.00 0.00 0.00 56 1017.4
20260902090006 68 177 0.0 8.0 0.00 0.00 0.00 57 1017.7
20260902084503 68 174 0.0 10.0 0.00 0.00 0.00 59 1017.8
20260902083005 67 181 0.0 10.0 0.00 0.00 0.00 59 1017.9
20260902081618 67 233 1.0 9.0 0.00 0.00 0.00 63 1018.0
20260902080107 67 194 2.0 10.0 0.00 0.00 0.00 62 1018.1
20260902074556 66 245 0.0 0.0 0.00 0.00 0.00 65 1018.3
20260902073054 64 246 0.0 0.0 0.00 0.00 0.00 68 1018.4
20260902071601 65 284 0.0 0.0 0.00 0.00 0.00 66 1018.6
20260902070050 64 303 0.0 0.0 0.00 0.00 0.00 68 1018.7
20260902064549 61 304 0.0 0.0 0.00 0.00 0.00 73 1018.9
20260902063106 59 301 0.0 0.0 0.00 0.00 0.00 80 1019.1
20260902061542 58 301 0.0 0.0 0.00 0.00 0.00 83 1019.2
20260902060046 57 301 0.0 0.0 0.00 0.00 0.00 83 1019.2
20260902054536 56 301 0.0 0.0 0.00 0.00 0.00 87 1019.0
20260902053032 54 301 0.0 0.0 0.00 0.00 0.00 89 1018.9
20260902051528 53 301 0.0 0.0 0.00 0.00 0.00 90 1018.7
20260902050027 53 301 0.0 0.0 0.00 0.00 0.00 92 1018.6
20260902044538 52 301 0.0 6.0 0.00 0.00 0.00 91 1018.4
20260902043023 51 293 0.0 4.0 0.00 0.00 0.00 89 1018.1
20260902041522 51 292 3.0 10.0 0.00 0.00 0.00 89 1017.9
20260902040019 51 61 1.0 7.0 0.00 0.00 0.00 89 1017.7
20260902034517 51 64 0.0 0.0 0.00 0.00 0.00 88 1017.4
20260902033014 51 64 0.0 0.0 0.00 0.00 0.00 89 1017.0
20260902031519 51 64 0.0 0.0 0.00 0.00 0.00 87 1016.9
20260902030011 52 64 0.0 0.0 0.00 0.00 0.00 86 1016.8
20260902024507 53 64 0.0 1.0 0.00 0.00 0.00 85 1016.8
20260902023005 53 63 2.0 8.0 0.00 0.00 0.00 85 1016.8
20260902021504 53 85 1.0 12.0 0.00 0.00 0.00 86 1016.5
20260902020002 54 92 3.0 10.0 0.00 0.00 0.00 85 1016.4
20260902014503 54 98 1.0 11.0 0.00 0.00 0.00 84 1016.3
20260902013115 54 78 5.0 15.0 0.00 0.00 0.00 84 1016.0
20260902011700 54 84 6.0 16.0 0.00 0.00 0.00 84 1015.9
20260902010101 55 119 8.0 16.0 0.00 0.00 0.00 85 1015.8
20260902004559 54 108 8.0 18.0 0.00 0.00 0.00 85 1015.7
20260902003102 54 124 11.0 19.0 0.00 0.00 0.00 86 1015.6
20260902001555 54 103 9.0 15.0 0.00 0.00 0.00 86 1015.7
20260902000053 54 133 8.0 16.0 0.00 0.00 0.00 85 1015.7
20260901234605 55 105 7.0 18.0 0.00 0.00 0.00 85 1015.9
20260901233055 54 134 8.0 18.0 0.00 0.00 0.00 87 1015.8
20260901231549 55 106 9.0 21.0 0.00 0.00 0.00 87 1015.7
20260901230053 54 73 8.0 21.0 0.00 0.00 0.00 88 1015.7
20260901224549 54 105 9.0 21.0 0.00 0.00 0.00 88 1015.7
20260901223049 55 123 8.0 24.0 0.00 0.00 0.00 88 1016.0
20260901221603 55 90 7.0 18.0 0.00 0.00 0.00 87 1016.1
20260901220036 55 122 8.0 20.0 0.00 0.00 0.00 87 1016.3
20260901214535 55 91 8.0 18.0 0.00 0.01 0.00 86 1016.4
20260901213035 55 107 10.0 21.0 0.00 0.01 0.00 85 1016.6
20260901211535 55 119 8.0 23.0 0.00 0.01 0.00 86 1016.8
20260901210028 55 115 10.0 20.0 0.00 0.01 0.00 86 1017.0
20260901204534 56 105 12.0 25.0 0.00 0.01 0.01 85 1017.4
20260901203044 56 118 11.0 25.0 0.00 0.01 0.01 84 1017.5
20260901201536 57 109 8.0 24.0 0.00 0.01 0.01 83 1017.5
20260901200027 57 131 11.0 20.0 0.00 0.01 0.01 82 1017.8
20260901194521 57 111 10.0 18.0 0.00 0.01 0.01 81 1017.8
20260901193020 57 106 14.0 28.0 0.00 0.01 0.01 80 1017.6
20260901191522 58 110 9.0 19.0 0.00 0.01 0.01 80 1017.7
20260901190019 58 121 9.0 20.0 0.00 0.01 0.01 79 1017.4
20260901184516 58 112 11.0 20.0 0.00 0.01 0.01 77 1017.6
20260901183015 59 99 9.0 19.0 0.00 0.01 0.01 77 1017.5
20260901181519 59 98 9.0 16.0 0.00 0.01 0.01 76 1017.7
20260901180015 59 115 11.0 18.0 0.00 0.01 0.01 75 1017.8
20260901174513 60 101 9.0 19.0 0.00 0.01 0.01 75 1017.8
20260901173014 60 115 9.0 16.0 0.00 0.01 0.01 75 1017.5
20260901171512 60 104 8.0 15.0 0.00 0.01 0.01 75 1017.3